Location: Unspecified
(43.4680°N, 87.1740°E)
Time: 20:07:34
(UTC+00:00)

SL-08 R/B - Pass Details

Date: 17 April 2021
Orbit: 949 x 1019 km, 83.0° (Epoch: 12 May)

Event Time Altitude Azimuth Distance (km) Brightness Sun altitude
Rises 20:26:18 0° 352° (N) 3,634 8.1 -27.6°
Reaches altitude 10° 20:28:48 10° 353° (N) 2,683 7.3 -27.3°
Maximum altitude 20:34:56 88° 82° (E) 958 4.3 -26.6°
Enters shadow 20:36:19 57° 169° (S) 1,113 4.5 -26.4°
